K0YP Weather Reports


time (UTC)temp
C
wind
direction
speed
KPH
gust
KPH
rain 1hr
cm
rain 24hr
cm
rain mn
cm
humidity
%
barometer
mb
20260510174532 26 119 1.6 8.0 0.00 0.33 0.00 76 1017.7
20260510173038 26 208 4.8 8.0 0.00 0.33 0.00 72 1017.9
20260510171538 25 0 0.0 6.4 0.00 0.33 0.00 75 1018.1
20260510170039 25 0 0.0 9.7 0.00 0.33 0.00 77 1018.3
20260510164534 25 0 0.0 4.8 0.00 0.58 0.00 80 1018.5
20260510163032 23 163 0.0 11.3 0.00 0.58 0.00 79 1018.3
20260510161531 23 0 0.0 4.8 0.00 0.58 0.00 81 1018.3
20260510160033 23 76 0.0 9.7 0.00 0.58 0.00 83 1018.3
20260510154536 22 136 3.2 9.7 0.00 1.55 0.00 86 1018.4
20260510153043 22 0 0.0 9.7 0.00 1.55 0.00 88 1018.5
20260510151536 21 360 1.6 6.4 0.00 1.55 0.00 90 1018.4
20260510150034 21 341 0.0 8.0 0.00 1.55 0.00 92 1018.5
20260510144531 20 0 1.6 8.0 0.00 2.51 0.00 93 1018.6
20260510143041 20 0 1.6 6.4 0.00 2.51 0.00 94 1018.7
20260510141540 19 0 0.0 4.8 0.00 2.51 0.00 94 1018.7
20260510140035 19 0 0.0 0.0 0.00 2.51 0.00 94 1018.6
20260510134532 19 46 0.0 4.8 0.00 4.62 0.00 94 1018.5
20260510133033 18 0 0.0 0.0 0.00 4.62 0.00 94 1018.3
20260510131531 18 0 0.0 3.2 0.00 4.62 0.00 94 1018.4
20260510130045 18 0 0.0 6.4 0.00 4.62 0.00 94 1018.0
20260510124545 17 0 0.0 6.4 0.00 4.72 0.00 94 1017.9
20260510123034 17 102 1.6 6.4 0.00 4.72 0.00 94 1017.7
20260510121535 17 40 1.6 4.8 0.00 4.72 0.00 94 1017.6
20260510120034 17 0 1.6 4.8 0.00 4.72 0.00 94 1017.3
20260510114531 17 0 0.0 0.0 0.00 4.72 0.00 94 1017.0
20260510113030 17 0 0.0 0.0 0.00 4.72 0.00 94 1016.7
20260510111535 17 0 0.0 0.0 0.00 4.72 0.00 94 1016.4
20260510110041 17 0 0.0 0.0 0.00 4.72 0.00 94 1016.2
20260510104534 17 0 0.0 0.0 0.00 4.75 0.00 94 1016.1
20260510103034 17 0 0.0 0.0 0.00 4.75 0.00 94 1016.0
20260510101537 17 0 0.0 0.0 0.00 4.75 0.00 94 1015.8
20260510100032 17 0 0.0 0.0 0.00 4.75 0.00 94 1015.7
20260510094536 17 0 0.0 1.6 0.00 4.78 0.00 94 1015.5
20260510093035 17 5 1.6 6.4 0.00 4.78 0.00 94 1015.4
20260510091537 17 0 0.0 3.2 0.00 4.78 0.00 94 1015.3
20260510090032 18 0 0.0 0.0 0.00 4.78 0.00 94 1015.1
20260510084536 17 0 0.0 0.0 0.00 4.78 0.00 94 1014.7
20260510083045 18 0 0.0 0.0 0.00 4.78 0.00 94 1014.7
20260510081536 18 0 0.0 0.0 0.00 4.78 0.00 93 1014.4
20260510080035 18 0 0.0 0.0 0.00 4.78 0.00 93 1014.5
20260510074535 18 0 1.6 6.4 0.00 5.03 0.00 93 1014.4
20260510073033 18 0 0.0 0.0 0.00 5.03 0.00 94 1014.3
20260510071533 18 0 0.0 0.0 0.00 5.03 0.00 93 1014.3
20260510070036 18 0 0.0 0.0 0.00 5.03 0.00 93 1014.5
20260510064539 18 336 0.0 3.2 0.00 5.05 0.00 93 1014.5
20260510063035 18 0 0.0 0.0 0.00 5.05 0.00 93 1014.4
20260510061536 18 207 0.0 6.4 0.00 5.05 0.00 94 1014.3
20260510060036 18 0 0.0 0.0 0.00 5.05 0.00 93 1014.1
20260510054532 18 0 0.0 0.0 0.00 5.08 0.00 93 1014.2
20260510053030 18 0 0.0 0.0 0.00 5.08 0.00 93 1014.6
20260510051536 18 0 0.0 0.0 0.00 5.08 0.00 93 1014.6
20260510050038 18 0 0.0 4.8 0.00 5.08 0.00 93 1014.7
20260510044535 18 0 0.0 4.8 0.00 5.08 5.08 93 1014.5
20260510043032 18 70 1.6 6.4 0.00 5.08 5.08 93 1014.8
20260510041531 19 0 0.0 0.0 0.00 5.08 5.08 93 1015.2
20260510040035 19 0 0.0 0.0 0.00 5.08 5.08 93 1015.6
20260510034537 19 0 0.0 1.6 0.00 5.08 5.08 93 1016.0
20260510033043 19 0 0.0 4.8 0.00 5.08 5.08 93 1015.8
20260510031535 19 0 0.0 0.0 0.00 5.08 5.08 93 1014.5
20260510030032 19 0 0.0 0.0 0.03 5.08 5.08 93 1015.1
20260510024534 19 0 0.0 0.0 0.03 5.08 5.08 93 1015.4
20260510023034 19 0 0.0 0.0 0.03 5.08 5.08 93 1015.4
20260510021535 19 0 0.0 0.0 0.03 5.08 5.08 93 1014.4
20260510020034 19 0 0.0 0.0 0.00 5.05 5.05 93 1014.4
20260510014535 19 0 0.0 0.0 0.00 5.11 5.05 93 1014.5
20260510013034 19 0 0.0 0.0 0.00 5.11 5.05 93 1014.8
20260510011534 19 0 0.0 0.0 0.03 5.11 5.05 93 1014.4
20260510010035 19 0 0.0 0.0 0.03 5.11 5.05 93 1014.5
20260510004532 19 0 0.0 0.0 0.03 5.13 5.05 93 1014.4
20260510003035 19 0 0.0 0.0 0.03 5.13 5.05 93 1014.4
20260510001532 19 0 0.0 0.0 0.00 5.11 5.03 93 1014.9
20260510000038 19 0 0.0 0.0 0.00 5.11 5.03 93 1014.8
20260509234541 19 0 0.0 4.8 0.00 5.18 5.03 93 1013.8
20260509233030 19 352 3.2 6.4 0.03 5.18 5.03 93 1013.4
20260509231537 19 0 0.0 0.0 0.05 5.18 5.03 93 1013.4
20260509230041 19 0 0.0 0.0 0.13 5.18 5.03 93 1013.7
20260509224545 19 319 0.0 8.0 0.15 5.44 5.03 93 1014.1
20260509223031 19 0 0.0 0.0 0.18 5.41 5.00 93 1012.9
20260509221533 19 0 0.0 4.8 0.15 5.36 4.98 93 1013.3
20260509220034 19 0 0.0 3.2 0.08 5.28 4.90 93 1013.3
20260509214531 19 0 0.0 3.2 0.10 5.97 4.88 93 1013.6
20260509213036 19 0 0.0 0.0 0.05 5.92 4.83 93 1013.4
20260509211534 19 0 0.0 4.8 0.05 5.92 4.83 93 1013.3
20260509210033 19 0 1.6 6.4 0.05 5.92 4.83 93 1013.6
20260509204533 19 0 0.0 6.4 0.00 7.39 4.78 93 1013.0
20260509203051 19 0 0.0 3.2 0.00 7.39 4.78 93 1012.9
20260509201535 19 219 3.2 6.4 0.00 7.39 4.78 93 1013.3
20260509200031 19 0 0.0 4.8 0.00 7.39 4.78 93 1013.2
20260509194533 19 0 0.0 0.0 0.00 7.67 4.78 93 1012.7
20260509193033 19 0 0.0 3.2 0.03 7.67 4.78 93 1012.2
20260509191532 19 348 1.6 8.0 0.03 7.67 4.78 93 1012.8
20260509190032 19 0 0.0 0.0 0.03 7.67 4.78 93 1011.2
20260509184543 20 0 0.0 3.2 0.03 7.67 4.78 94 1012.8
20260509183035 19 0 0.0 6.4 0.00 7.65 4.75 93 1012.1
20260509181534 19 134 0.0 4.8 0.00 7.65 4.75 93 1013.0
20260509180053 18 244 3.2 12.9 0.00 7.65 4.75 94 1013.0